Torna al catalogo

CEVROSAT

AttivoRadioamatoreVLEO
NORAD 66304·PAYLOAD·🇨🇿 Czechia
Questo nome del satellite non è ancora stato confermato da fonti ufficiali.

Lanciato Nov 2, 2025 da Cape Canaveral Space Force Station

Loading…

Prossimi Passaggi (prossime 24 ore)

TLE

AggiornatoSource: Space-Track

Epoca: Sep 14, 2026, 07:18 UTC

1 66304U 25248M   26257.30437579  .00013083  00000-0  44672-3 0  9991
2 66304  45.4207 349.5457 0008744 226.7829 133.2332 15.30340202 46972

Traccia CEVROSAT in tempo reale con AllMySat

Download on the App Store